Regional Weather Roundup
Issued by NWS Grand Forks, ND

Home | Current Version | Previous Version | Text Only | Print | Product List | Glossary Off
Versions: 1 2 3 4 5 6 7 8 9 10 11 12 13 14 15 16 17 18 19 20 21 22 23 24 25 26 27 28 29 30 31 32 33 34 35 36 37 38 39 40 41 42 43 44 45 46 47 48 49 50

000
ASUS43 KFGF 200210
RWRFGF
PRAIRIE TO PINES  WEATHER ROUNDUP
NATIONAL WEATHER SERVICE EASTERN NORTH DAKOTA/GRAND FORKS ND
800 PM CST SUN FEB 19 2017

 **SATELLITE DATA USED TO AUGMENT SKY COVER AT AUTOMATED STATIONS**
 *****  WEATHER ACROSS EASTERN NORTH DAKOTA  *****

CITY           SKY/WX    TMP DP  RH WIND       PRES   REMARKS
GRAND FORKS    MOCLDY    41  33  73 SE10      29.62F
GRAND FRKS AFB FAIR      40  37  88 SE12      29.61F
DEVILS LAKE    FAIR      36  35  96 SE8       29.57R FOG
FARGO          FAIR      51  45  79 SE17G25   29.63S
WAHPETON ARPT  FAIR      50  45  81 SE17      29.66S
$$

 ***** WEATHER ACROSS CENTRAL AND WESTERN NORTH DAKOTA  *****

CITY           SKY/WX    TMP DP  RH WIND       PRES   REMARKS
BISMARCK       FAIR      37  35  92 E8        29.53R
MINOT          FAIR      32  30  92 NW3       29.51S
JAMESTOWN      FAIR      43  41  93 SE10      29.55R
MINOT AFB      FAIR      31  29  95 CALM      29.51S
GARRISON         N/A     34  32  92 CALM      29.51R
WILLISTON      FOG       33  32  96 N9        29.54R VSB 1/2
DICKINSON      FAIR      44  36  73 NE6       29.47R
HETTINGER      FAIR      44  36  73 E5        29.48S
$$

 *****  OTHER AIRPORT OBSERVATIONS IN OUR AREA  *****

CITY           SKY/WX    TMP DP  RH WIND       PRES   REMARKS
WALHALLA       NOT AVBL
GRAFTON AIRPOR FAIR      36  34  93 E13       29.63F
VALLEY CITY AR FAIR      46  46 100 S12       29.60S
CANDO          NOT AVBL
CAVALIER APRT  FAIR      37  32  81 SE6       29.62F
GWINNER        FAIR      48  46  93 SE12      29.60S
SHEYENNE NWR     N/A     51  48  88 SE13      29.95S
ROLLA          CLOUDY    32  32 100 SE3       29.57S
 ***** THE ABOVE OBSERVATIONS ARE NON NWS ARE NOT QUALITY
       CONTROLLED AND MAY MIS-REPORT RAIN FOR SNOW...
$$

  *****  WEATHER ACROSS NORTHERN MINNESOTA  *****

CITY           SKY/WX    TMP DP  RH WIND       PRES   REMARKS
FLAG ISLAND    FAIR      43  28  56 E15G22    29.76F
WARROAD        FAIR      37  34  87 E8        29.76S
ROSEAU         FAIR      37  32  81 E7        29.73S
HALLOCK        FAIR      46  34  61 SE23G30   29.63F
THF RVR FALLS  FAIR      42  33  70 SE16      29.69S
BAUDETTE       FAIR      40  30  67 E16       29.76F
WASKISH        FAIR      48  32  53 SE12G17   29.77S
CROOKSTON      FAIR      43  36  75 SE18      29.65S
GREENBUSH NDAW   N/A     39  32  75 SE13        N/A
$$
  *****  WEATHER ACROSS CENTRAL AND WEST MINNESOTA  *****

CITY           SKY/WX    TMP DP  RH WIND       PRES   REMARKS
FOSSTON        FAIR      45  34  65 SE12      29.71S
BEMIDJI        FAIR      43  32  63 SE15      29.75S
PARK RAPIDS    FAIR      46  33  60 SE13      29.76R
ELBOW LAKE     FAIR      50  47  89 E16G23    29.70S
WADENA         FAIR      45  37  76 SE12      29.75S
DETROIT LAKES  FAIR      45  37  76 SE15      29.71S
MOORHEAD       FAIR      48  43  81 SE13      29.65F
FERGUS FALLS   FAIR      50  45  81 SE22G30   29.72S
MORRIS MN      FAIR      52  48  87 SE17      29.69F
STAPLES        FAIR      48  37  66 SE9G18    29.77S
$$
  *****  WEATHER ELSEWHERE ACROSS MINNESOTA  *****

CITY           SKY/WX    TMP DP  RH WIND       PRES   REMARKS
DULUTH         FAIR      37  30  75 E20       29.93F
INTRNTL FALLS  FAIR      41  30  65 E13       29.84F
ELY            FAIR      37  27  65 E7        29.94F
CLOQUET        FAIR      37  30  75 E12G18    29.91F
WHEATON        FAIR      48  46  93 SE16      29.67F
BRAINERD       FAIR      48  37  65 SE12      29.82R
HIBBING        FAIR      37  29  72 SE10      29.89S
ALEXANDRIA     FAIR      48  43  82 SE15      29.75S
SAINT CLOUD    FAIR      51  41  68 SE13      29.82S
MINNEAPOLIS    CLOUDY    52  39  61 SE16      29.88S
$$

  *****  WEATHER ACROSS SOUTH DAKOTA  *****

CITY           SKY/WX    TMP DP  RH WIND       PRES   REMARKS
SIOUX FALLS    CLOUDY    58  50  75 S17       29.70S
BROOKINGS      FAIR      54  48  80 S23       29.67F
WATERTOWN      FAIR      49  46  90 S15       29.64S
HURON          FAIR      57  50  77 S14       29.61R
SISSETON         N/A     48  46  93 S12       29.63F
ABERDEEN       FAIR      51  46  83 S15       29.57S
MITCHELL       FAIR      58  51  78 SE15      29.63R
PIERRE         FAIR      59  38  45 S10       29.53R
MOBRIDGE       FAIR      44  35  70 SE6       29.49R
RAPID CITY     FAIR      57  32  38 SW12      29.53R
$$

  *****  SOME WEATHER IN NEARBY STATES *****

CITY           SKY/WX    TMP DP  RH WIND       PRES   REMARKS
GLASGOW MT     FOG       32  31  96 S9        29.56R VSB 1/4 WCI  24
GREAT FALLS MT FAIR      33  21  61 SW8       29.55R
CHEYENNE WY    CLOUDY    44  34  67 NW13G22   29.66R
SCOTTSBLUFF NE FAIR      50  32  50 NW8       29.58R
OMAHA NE       FAIR      60  50  69 S10       29.80S
DES MOINES IA  MOCLDY    62  47  57 SE12      29.89S
DAVENPORT IA   FAIR      57  44  62 SE10      30.00R
CHICAGO IL     MOCLDY    48  31  51 SE6       30.07R
EAU CLAIRE WI  FAIR      52  32  46 SE6       29.95F
LA CROSSE WI   FAIR      53  38  56 SE7       29.97R
$$

  *****  SOME NATIONAL WEATHER *****

CITY           SKY/WX    TMP DP  RH WIND       PRES   REMARKS
LA GUARDIA NY  FAIR      57  30  35 N8        29.93R
RALEIGH NC     FAIR      57  43  59 CALM      30.05R
ATLANTA GA     FAIR      60  47  61 N6        30.11R
NEW ORLEANS LA FAIR      67  64  90 SE8       30.06R
OKLAHOMA CITY  CLOUDY    64  62  93 SE14      29.82R
ALBUQUERQUE NM MOCLDY    48  31  51 NW8       29.92R
SALT LAKE CITY FAIR      47  40  76 S12       29.79R
LOS ANGELES CA LGT RAIN  56  50  80 SW8       30.05R
BOISE ID       FAIR      44  36  73 N5        29.75R
SEATTLE WA     LGT RAIN  46  39  76 S13       29.54R
$$

*** WEATHER ACROSS MANITOBA...SASKATCHEWAN AND ONTARIO ***
                ***ONTARIO***

CITY           SKY/WX    TMP DP  RH WIND       PRES   REMARKS
GERALDTON      MOCLDY    27  21  80 E6        30.14R WCI  20
THUNDER BAY    MOCLDY    34  30  86 NE3       30.10S
SIOUX LOOKOUT  CLOUDY    39  27  60 SE6       29.94F
TORONTO        PTCLDY    39  28  65 N8        30.09R
BIG TROUT LK   CLOUDY    23  21  93 SE7       30.11F WCI  15
PICKLE LAKE    PTCLDY    27  23  86 E8        30.04S WCI  18
DRYDEN         CLOUDY    41  28  60 SE16G24   29.88F
KENORA         MOCLDY    39  28  65 E10       29.83S
$$
                *** MANITOBA***

CITY           SKY/WX    TMP DP  RH WIND       PRES   REMARKS
BRANDON        CLOUDY    34  30  86 E21       29.61R WCI  22
DAUPHIN        CLOUDY    32  28  86 NE9       29.70R WCI  24
ISLAND LAKE    CLOUDY    25  21  86 SE9       29.99R WCI  15
PILOT MOUND      N/A     36  32  87 SE14        N/A
THE PAS        CLOUDY    27  19  74 E12G18    29.81F WCI  16
THOMPSON       NOT AVBL
WINNIPEG       MOCLDY    39  30  70 E17       29.66F
LYNN LAKE      CLOUDY    23  21  93 E9        29.90F WCI  13
CHURCHILL      FLURRIES  10   9  92 S8        30.13S WCI  -1
GILLAM         CLOUDY    19  14  79 E3        30.07F
$$
                ***SASKATCHEWAN***

CITY           SKY/WX    TMP DP  RH WIND       PRES   REMARKS
ESTEVAN        CLOUDY    32  32 100 SE7       29.55R FOG
KINDERSLEY     CLOUDY    34  34 100 S8        29.47R
LLOYDMINSTER   DRIZZLE   32  32 100 SE8       29.46R FOG     WCI  25
PRINCE ALBERT  CLOUDY    32  27  80 E14G23    29.62S WCI  22
REGINA         DRIZZLE   32  32 100 SE9       29.57S WCI  24
YORKTON        CLOUDY    28  28 100 E18       29.62F WCI  16
N. BATTLEFORD  LGT SNOW  32 N/A N/A SE15      29.51S WCI  22
LA RONGE       SNOWSHWR  28  25  86 E10G22    29.69F WCI  19
SASKATOON      LGT RAIN  34  32  93 SE10      29.55R
SWIFT CURRENT  PTCLDY    36  36 100 SW7       29.49R
$$
NOTE: THESE ARE AUTOMATED STATIONS WITH LIMITED QUALITY CONTROL
      "FAIR" INDICATES FEW OR NO CLOUDS BELOW 12,000 FEET WITH NO
      SIGNIFICANT WEATHER AND/OR OBSTRUCTIONS TO VISIBILITY.
      SKY/WX - SKY CONDITION AND SIGNIFICANT WEATHER.
      TMP - AIR TEMPERATURE.    DP   - DEWPOINT TEMPERATURE.
      RH  - RELATIVE HUMIDITY.  PRES - PRESSURE.
      HX  - HEAT INDEX.         WCI  - WIND CHILL INDEX.
$




USA.gov is the U.S. government's official web portal to all federal, state and local government web resources and services.